Location: Bayou Vista
(29.6905°N, 91.2709°W)
Time: 14:21:36
(UTC+00:00)

BlueWalker 3 - Visible Passes

Search period start: 23 July 2024 00:00
Search period end: 02 August 2024 00:00
Orbit: 480 x 491 km, 53.2° (Epoch: 22 July)

Date Brightness Start Highest point End Pass type
(mag) Time Alt. Az. Time Alt. Az. Time Alt. Az.
28 Jul 3.7 10:45:23 10° S 10:48:37 27° SE 10:51:52 10° ENE visible
29 Jul 3.8 10:19:15 10° S 10:22:21 24° SE 10:25:28 10° ENE visible
30 Jul 3.9 09:54:02 15° SSE 09:56:04 22° SE 09:59:02 10° ENE visible
31 Jul 3.9 09:29:09 19° SE 09:29:46 20° SE 09:32:33 10° ENE visible
01 Aug 4.3 09:04:10 17° ESE 09:04:10 17° ESE 09:06:02 10° E visible
01 Aug 2.9 10:38:29 14° WSW 10:41:20 33° NW 10:44:48 10° NNE visible
